Volver al catálogo

ESSAIM-3

ActivoMilitarPO
NORAD 28496·PAYLOAD·🇫🇷 France

Lanzado Dec 18, 2004 desde Guiana Space Centre

Loading…

Próximos Pases (próximas 24 horas)

TLE

ActualizadoSource: Space-Track

Época: Sep 14, 2026, 13:38 UTC

1 28496U 04049E   26257.56820208  .00001607  00000-0  14568-3 0  9990
2 28496  98.2298 199.0658 0001060  11.0343 349.0900 14.96883092176094

Sigue ESSAIM-3 en tiempo real con AllMySat

Download on the App Store